Year,Month,Day,Hour,Minute,Value (Times are PST for temperature in C)
2015,07,08,00,00,18.40
2015,07,08,00,01,18.40
2015,07,08,00,02,18.40
2015,07,08,00,03,18.40
2015,07,08,00,04,18.30
2015,07,08,00,05,18.30
2015,07,08,00,06,18.30
2015,07,08,00,07,18.30
2015,07,08,00,08,18.30
2015,07,08,00,09,18.30
2015,07,08,00,10,18.30
2015,07,08,00,11,18.30
2015,07,08,00,12,18.30
2015,07,08,00,13,18.30
2015,07,08,00,14,18.30
2015,07,08,00,15,18.20
2015,07,08,00,16,18.20
2015,07,08,00,17,18.20
2015,07,08,00,18,18.20
2015,07,08,00,19,18.20
2015,07,08,00,20,18.20
2015,07,08,00,21,18.20
2015,07,08,00,22,18.20
2015,07,08,00,23,18.20
2015,07,08,00,24,18.20
2015,07,08,00,25,18.20
2015,07,08,00,26,18.20
2015,07,08,00,27,18.10
2015,07,08,00,28,18.10
2015,07,08,00,29,18.10
2015,07,08,00,30,18.10
2015,07,08,00,31,18.10
2015,07,08,00,32,18.10
2015,07,08,00,33,18.10
2015,07,08,00,34,18.10
2015,07,08,00,35,18.00
2015,07,08,00,36,18.00
2015,07,08,00,37,18.00
2015,07,08,00,38,17.90
2015,07,08,00,39,17.90
2015,07,08,00,40,17.90
2015,07,08,00,41,17.90
2015,07,08,00,42,17.90
2015,07,08,00,43,17.90
2015,07,08,00,44,17.90
2015,07,08,00,45,17.80
2015,07,08,00,46,17.80
2015,07,08,00,47,17.80
2015,07,08,00,48,17.80
2015,07,08,00,49,17.80
2015,07,08,00,50,17.80
2015,07,08,00,51,17.80
2015,07,08,00,52,17.70
2015,07,08,00,53,17.70
2015,07,08,00,54,17.70
2015,07,08,00,55,17.70
2015,07,08,00,56,17.70
2015,07,08,00,57,17.70
2015,07,08,00,58,17.60
2015,07,08,00,59,17.60
2015,07,08,01,00,17.60
2015,07,08,01,01,17.60
2015,07,08,01,02,17.60
2015,07,08,01,03,17.50
2015,07,08,01,04,17.50
2015,07,08,01,05,17.50
2015,07,08,01,06,17.40
2015,07,08,01,07,17.40
2015,07,08,01,08,17.40
2015,07,08,01,09,17.40
2015,07,08,01,10,17.40
2015,07,08,01,11,17.30
2015,07,08,01,12,17.30
2015,07,08,01,13,17.30
2015,07,08,01,14,17.30
2015,07,08,01,15,17.30
2015,07,08,01,16,17.30
2015,07,08,01,17,17.20
2015,07,08,01,18,17.20
2015,07,08,01,19,17.20
2015,07,08,01,20,17.20
2015,07,08,01,21,17.20
2015,07,08,01,22,17.20
2015,07,08,01,23,17.20
2015,07,08,01,24,17.20
2015,07,08,01,25,17.20
2015,07,08,01,26,17.20
2015,07,08,01,27,17.20
2015,07,08,01,28,17.20
2015,07,08,01,29,17.20
2015,07,08,01,30,17.20
2015,07,08,01,31,17.20
2015,07,08,01,32,17.20
2015,07,08,01,33,17.20
2015,07,08,01,34,17.20
2015,07,08,01,35,17.20
2015,07,08,01,36,17.10
2015,07,08,01,37,17.10
2015,07,08,01,38,17.10
2015,07,08,01,39,17.10
2015,07,08,01,40,17.10
2015,07,08,01,41,17.10
2015,07,08,01,42,17.10
2015,07,08,01,43,17.10
2015,07,08,01,44,17.10
2015,07,08,01,45,17.00
2015,07,08,01,46,17.00
2015,07,08,01,47,17.00
2015,07,08,01,48,16.90
2015,07,08,01,49,16.90
2015,07,08,01,50,16.90
2015,07,08,01,51,16.90
2015,07,08,01,52,16.80
2015,07,08,01,53,16.80
2015,07,08,01,54,16.80
2015,07,08,01,55,16.80
2015,07,08,01,56,16.80
2015,07,08,01,57,16.80
2015,07,08,01,58,16.70
2015,07,08,01,59,16.70
2015,07,08,02,00,16.70
2015,07,08,02,01,16.70
2015,07,08,02,02,16.70
2015,07,08,02,03,16.70
2015,07,08,02,04,16.70
2015,07,08,02,05,16.60
2015,07,08,02,06,16.60
2015,07,08,02,07,16.60
2015,07,08,02,08,16.60
2015,07,08,02,09,16.60
2015,07,08,02,10,16.60
2015,07,08,02,11,16.60
2015,07,08,02,12,16.60
2015,07,08,02,13,16.60
2015,07,08,02,14,16.60
2015,07,08,02,15,16.50
2015,07,08,02,16,16.50
2015,07,08,02,17,16.50
2015,07,08,02,18,16.50
2015,07,08,02,19,16.50
2015,07,08,02,20,16.50
2015,07,08,02,21,16.50
2015,07,08,02,22,16.50
2015,07,08,02,23,16.50
2015,07,08,02,24,16.50
2015,07,08,02,25,16.40
2015,07,08,02,26,16.40
2015,07,08,02,27,16.40
2015,07,08,02,28,16.40
2015,07,08,02,29,16.40
2015,07,08,02,30,16.40
2015,07,08,02,31,16.40
2015,07,08,02,32,16.40
2015,07,08,02,33,16.40
2015,07,08,02,34,16.40
2015,07,08,02,35,16.40
2015,07,08,02,36,16.40
2015,07,08,02,37,16.40
2015,07,08,02,38,16.40
2015,07,08,02,39,16.40
2015,07,08,02,40,16.40
2015,07,08,02,41,16.40
2015,07,08,02,42,16.40
2015,07,08,02,43,16.40
2015,07,08,02,44,16.30
2015,07,08,02,45,16.30
2015,07,08,02,46,16.30
2015,07,08,02,47,16.30
2015,07,08,02,48,16.30
2015,07,08,02,49,16.30
2015,07,08,02,50,16.30
2015,07,08,02,51,16.30
2015,07,08,02,52,16.30
2015,07,08,02,53,16.30
2015,07,08,02,54,16.30
2015,07,08,02,55,16.30
2015,07,08,02,56,16.30
2015,07,08,02,57,16.30
2015,07,08,02,58,16.30
2015,07,08,02,59,16.30
2015,07,08,03,00,16.30
2015,07,08,03,01,16.30
2015,07,08,03,02,16.30
2015,07,08,03,03,16.20
2015,07,08,03,04,16.20
2015,07,08,03,05,16.20
2015,07,08,03,06,16.20
2015,07,08,03,07,16.20
2015,07,08,03,08,16.20
2015,07,08,03,09,16.20
2015,07,08,03,10,16.20
2015,07,08,03,11,16.20
2015,07,08,03,12,16.20
2015,07,08,03,13,16.20
2015,07,08,03,14,16.20
2015,07,08,03,15,16.20
2015,07,08,03,16,16.20
2015,07,08,03,17,16.10
2015,07,08,03,18,16.10
2015,07,08,03,19,16.10
2015,07,08,03,20,16.10
2015,07,08,03,21,16.10
2015,07,08,03,22,16.10
2015,07,08,03,23,16.10
2015,07,08,03,24,16.00
2015,07,08,03,25,16.00
2015,07,08,03,26,16.00
2015,07,08,03,27,16.00
2015,07,08,03,28,16.00
2015,07,08,03,29,15.90
2015,07,08,03,30,15.90
2015,07,08,03,31,15.90
2015,07,08,03,32,15.90
2015,07,08,03,33,15.90
2015,07,08,03,34,15.90
2015,07,08,03,35,15.90
2015,07,08,03,36,15.80
2015,07,08,03,37,15.80
2015,07,08,03,38,15.80
2015,07,08,03,39,15.80
2015,07,08,03,40,15.80
2015,07,08,03,41,15.80
2015,07,08,03,42,15.80
2015,07,08,03,43,15.80
2015,07,08,03,44,15.80
2015,07,08,03,45,15.80
2015,07,08,03,46,15.80
2015,07,08,03,47,15.80
2015,07,08,03,48,15.80
2015,07,08,03,49,15.80
2015,07,08,03,50,15.80
2015,07,08,03,51,15.70
2015,07,08,03,52,15.70
2015,07,08,03,53,15.70
2015,07,08,03,54,15.70
2015,07,08,03,55,15.70
2015,07,08,03,56,15.70
2015,07,08,03,57,15.70
2015,07,08,03,58,15.70
2015,07,08,03,59,15.70
2015,07,08,04,00,15.70
2015,07,08,04,01,15.70
2015,07,08,04,02,15.70
2015,07,08,04,03,15.70
2015,07,08,04,04,15.70
2015,07,08,04,05,15.70
2015,07,08,04,06,15.70
2015,07,08,04,07,15.70
2015,07,08,04,08,15.70
2015,07,08,04,09,15.60
2015,07,08,04,10,15.60
2015,07,08,04,11,15.60
2015,07,08,04,12,15.60
2015,07,08,04,13,15.60
2015,07,08,04,14,15.60
2015,07,08,04,15,15.60
2015,07,08,04,16,15.60
2015,07,08,04,17,15.60
2015,07,08,04,18,15.60
2015,07,08,04,19,15.60
2015,07,08,04,20,15.60
2015,07,08,04,21,15.60
2015,07,08,04,22,15.60
2015,07,08,04,23,15.50
2015,07,08,04,24,15.50
2015,07,08,04,25,15.50
2015,07,08,04,26,15.50
2015,07,08,04,27,15.50
2015,07,08,04,28,15.50
2015,07,08,04,29,15.40
2015,07,08,04,30,15.40
2015,07,08,04,31,15.40
2015,07,08,04,32,15.40
2015,07,08,04,33,15.40
2015,07,08,04,34,15.40
2015,07,08,04,35,15.40
2015,07,08,04,36,15.40
2015,07,08,04,37,15.40
2015,07,08,04,38,15.40
2015,07,08,04,39,15.40
2015,07,08,04,40,15.40
2015,07,08,04,41,15.40
2015,07,08,04,42,15.40
2015,07,08,04,43,15.40
2015,07,08,04,44,15.40
2015,07,08,04,45,15.40
2015,07,08,04,46,15.30
2015,07,08,04,47,15.40
2015,07,08,04,48,15.40
2015,07,08,04,49,15.30
2015,07,08,04,50,15.40
2015,07,08,04,51,15.40
2015,07,08,04,52,15.40
2015,07,08,04,53,15.40
2015,07,08,04,54,15.30
2015,07,08,04,55,15.40
2015,07,08,04,56,15.30
2015,07,08,04,57,15.30
2015,07,08,04,58,15.40
2015,07,08,04,59,15.40
2015,07,08,05,00,15.40
2015,07,08,05,01,15.40
2015,07,08,05,02,15.40
2015,07,08,05,03,15.30
2015,07,08,05,04,15.30
2015,07,08,05,05,15.30
2015,07,08,05,06,15.30
2015,07,08,05,07,15.30
2015,07,08,05,08,15.30
2015,07,08,05,09,15.30
2015,07,08,05,10,15.30
2015,07,08,05,11,15.30
2015,07,08,05,12,15.30
2015,07,08,05,13,15.30
2015,07,08,05,14,15.30
2015,07,08,05,15,15.30
2015,07,08,05,16,15.30
2015,07,08,05,17,15.30
2015,07,08,05,18,15.30
2015,07,08,05,19,15.30
2015,07,08,05,20,15.30
2015,07,08,05,21,15.20
2015,07,08,05,22,15.20
2015,07,08,05,23,15.20
2015,07,08,05,24,15.20
2015,07,08,05,25,15.20
2015,07,08,05,26,15.20
2015,07,08,05,27,15.20
2015,07,08,05,28,15.20
2015,07,08,05,29,15.20
2015,07,08,05,30,15.20
2015,07,08,05,31,15.20
2015,07,08,05,32,15.10
2015,07,08,05,33,15.10
2015,07,08,05,34,15.10
2015,07,08,05,35,15.10
2015,07,08,05,36,15.10
2015,07,08,05,37,15.10
2015,07,08,05,38,15.10
2015,07,08,05,39,15.10
2015,07,08,05,40,15.10
2015,07,08,05,41,15.10
2015,07,08,05,42,15.00
2015,07,08,05,43,15.00
2015,07,08,05,44,15.00
2015,07,08,05,45,15.00
2015,07,08,05,46,15.00
2015,07,08,05,47,15.00
2015,07,08,05,48,15.00
2015,07,08,05,49,15.00
2015,07,08,05,50,15.00
2015,07,08,05,51,15.00
2015,07,08,05,52,15.00
2015,07,08,05,53,15.00
2015,07,08,05,54,15.00
2015,07,08,05,55,15.00
2015,07,08,05,56,15.00
2015,07,08,05,57,15.00
2015,07,08,05,58,15.00
2015,07,08,05,59,15.00
2015,07,08,06,00,15.00
2015,07,08,06,01,15.00
2015,07,08,06,02,15.00
2015,07,08,06,03,15.00
2015,07,08,06,04,15.00
2015,07,08,06,05,15.00
2015,07,08,06,06,15.00
2015,07,08,06,07,15.00
2015,07,08,06,08,15.00
2015,07,08,06,09,15.00
2015,07,08,06,10,15.00
2015,07,08,06,11,15.10
2015,07,08,06,12,15.10
2015,07,08,06,13,15.10
2015,07,08,06,14,15.10
2015,07,08,06,15,15.10
2015,07,08,06,16,15.10
2015,07,08,06,17,15.20
2015,07,08,06,18,15.20
2015,07,08,06,19,15.20
2015,07,08,06,20,15.20
2015,07,08,06,21,15.20
2015,07,08,06,22,15.20
2015,07,08,06,23,15.20
2015,07,08,06,24,15.20
2015,07,08,06,25,15.20
2015,07,08,06,26,15.20
2015,07,08,06,27,15.20
2015,07,08,06,28,15.20
2015,07,08,06,29,15.20
2015,07,08,06,30,15.20
2015,07,08,06,31,15.20
2015,07,08,06,32,15.20
2015,07,08,06,33,15.20
2015,07,08,06,34,15.20
2015,07,08,06,35,15.30
2015,07,08,06,36,15.20
2015,07,08,06,37,15.30
2015,07,08,06,38,15.30
2015,07,08,06,39,15.30
2015,07,08,06,40,15.30
2015,07,08,06,41,15.30
2015,07,08,06,42,15.30
2015,07,08,06,43,15.30
2015,07,08,06,44,15.30
2015,07,08,06,45,15.30
2015,07,08,06,46,15.30
2015,07,08,06,47,15.30
2015,07,08,06,48,15.30
2015,07,08,06,49,15.30
2015,07,08,06,50,15.30
2015,07,08,06,51,15.40
2015,07,08,06,52,15.40
2015,07,08,06,53,15.40
2015,07,08,06,54,15.50
2015,07,08,06,55,15.50
2015,07,08,06,56,15.50
2015,07,08,06,57,15.60
2015,07,08,06,58,15.60
2015,07,08,06,59,15.60
2015,07,08,07,00,15.60
2015,07,08,07,01,15.70
2015,07,08,07,02,15.70
2015,07,08,07,03,15.70
2015,07,08,07,04,15.70
2015,07,08,07,05,15.70
2015,07,08,07,06,15.80
2015,07,08,07,07,15.80
2015,07,08,07,08,15.80
2015,07,08,07,09,15.80
2015,07,08,07,10,15.90
2015,07,08,07,11,15.90
2015,07,08,07,12,15.90
2015,07,08,07,13,15.90
2015,07,08,07,14,15.90
2015,07,08,07,15,15.90
2015,07,08,07,16,16.00
2015,07,08,07,17,16.00
2015,07,08,07,18,16.00
2015,07,08,07,19,16.00
2015,07,08,07,20,16.10
2015,07,08,07,21,16.10
2015,07,08,07,22,16.10
2015,07,08,07,23,16.10
2015,07,08,07,24,16.10
2015,07,08,07,25,16.10
2015,07,08,07,26,16.10
2015,07,08,07,27,16.20
2015,07,08,07,28,16.20
2015,07,08,07,29,16.20
2015,07,08,07,30,16.20
2015,07,08,07,31,16.20
2015,07,08,07,32,16.20
2015,07,08,07,33,16.20
2015,07,08,07,34,16.20
2015,07,08,07,35,16.20
2015,07,08,07,36,16.30
2015,07,08,07,37,16.30
2015,07,08,07,38,16.30
2015,07,08,07,39,16.30
2015,07,08,07,40,16.30
2015,07,08,07,41,16.30
2015,07,08,07,42,16.30
2015,07,08,07,43,16.40
2015,07,08,07,44,16.40
2015,07,08,07,45,16.40
2015,07,08,07,46,16.40
2015,07,08,07,47,16.40
2015,07,08,07,48,16.40
2015,07,08,07,49,16.40
2015,07,08,07,50,16.50
2015,07,08,07,51,16.50
2015,07,08,07,52,16.50
2015,07,08,07,53,16.50
2015,07,08,07,54,16.60
2015,07,08,07,55,16.60
2015,07,08,07,56,16.60
2015,07,08,07,57,16.60
2015,07,08,07,58,16.60
2015,07,08,07,59,16.60
2015,07,08,08,00,16.60
2015,07,08,08,01,16.70
2015,07,08,08,02,16.70
2015,07,08,08,03,16.70
2015,07,08,08,04,16.70
2015,07,08,08,05,16.70
2015,07,08,08,06,16.80
2015,07,08,08,07,16.80
2015,07,08,08,08,16.80
2015,07,08,08,09,16.80
2015,07,08,08,10,16.80
2015,07,08,08,11,16.90
2015,07,08,08,12,16.90
2015,07,08,08,13,16.90
2015,07,08,08,14,16.90
2015,07,08,08,15,16.90
2015,07,08,08,16,17.00
2015,07,08,08,17,17.00
2015,07,08,08,18,17.00
2015,07,08,08,19,17.10
2015,07,08,08,20,17.10
2015,07,08,08,21,17.10
2015,07,08,08,22,17.10
2015,07,08,08,23,17.20
2015,07,08,08,24,17.20
2015,07,08,08,25,17.20
2015,07,08,08,26,17.20
2015,07,08,08,27,17.30
2015,07,08,08,28,17.30
2015,07,08,08,29,17.30
2015,07,08,08,30,17.30
2015,07,08,08,31,17.40
2015,07,08,08,32,17.40
2015,07,08,08,33,17.40
2015,07,08,08,34,17.50
2015,07,08,08,35,17.50
2015,07,08,08,36,17.60
2015,07,08,08,37,17.60
2015,07,08,08,38,17.70
2015,07,08,08,39,17.70
2015,07,08,08,40,17.70
2015,07,08,08,41,17.80
2015,07,08,08,42,17.80
2015,07,08,08,43,17.80
2015,07,08,08,44,17.90
2015,07,08,08,45,17.90
2015,07,08,08,46,17.90
2015,07,08,08,47,18.00
2015,07,08,08,48,18.10
2015,07,08,08,49,18.10
2015,07,08,08,50,18.20
2015,07,08,08,51,18.20
2015,07,08,08,52,18.30
2015,07,08,08,53,18.30
2015,07,08,08,54,18.30
2015,07,08,08,55,18.40
2015,07,08,08,56,18.40
2015,07,08,08,57,18.50
2015,07,08,08,58,18.50
2015,07,08,08,59,18.60
2015,07,08,09,00,18.60
2015,07,08,09,01,18.70
2015,07,08,09,02,18.70
2015,07,08,09,03,18.80
2015,07,08,09,04,18.80
2015,07,08,09,05,18.90
2015,07,08,09,06,18.90
2015,07,08,09,07,19.00
2015,07,08,09,08,19.00
2015,07,08,09,09,19.10
2015,07,08,09,10,19.10
2015,07,08,09,11,19.20
2015,07,08,09,12,19.20
2015,07,08,09,13,19.30
2015,07,08,09,14,19.30
2015,07,08,09,15,19.40
2015,07,08,09,16,19.40
2015,07,08,09,17,19.50
2015,07,08,09,18,19.60
2015,07,08,09,19,19.60
2015,07,08,09,20,19.70
2015,07,08,09,21,19.70
2015,07,08,09,22,19.80
2015,07,08,09,23,19.80
2015,07,08,09,24,19.90
2015,07,08,09,25,19.90
2015,07,08,09,26,20.00
2015,07,08,09,27,20.10
2015,07,08,09,28,20.20
2015,07,08,09,29,20.20
2015,07,08,09,30,20.30
2015,07,08,09,31,20.30
2015,07,08,09,32,20.40
2015,07,08,09,33,20.50
2015,07,08,09,34,20.60
2015,07,08,09,35,20.60
2015,07,08,09,36,20.70
2015,07,08,09,37,20.70
2015,07,08,09,38,20.80
2015,07,08,09,39,20.80
2015,07,08,09,40,20.90
2015,07,08,09,41,21.00
2015,07,08,09,42,21.00
2015,07,08,09,43,21.10
2015,07,08,09,44,21.10
2015,07,08,09,45,21.20
2015,07,08,09,46,21.20
2015,07,08,09,47,21.30
2015,07,08,09,48,21.30
2015,07,08,09,49,21.40
2015,07,08,09,50,21.40
2015,07,08,09,51,21.40
2015,07,08,09,52,21.50
2015,07,08,09,53,21.60
2015,07,08,09,54,21.60
2015,07,08,09,55,21.70
2015,07,08,09,56,21.70
2015,07,08,09,57,21.70
2015,07,08,09,58,21.80
2015,07,08,09,59,21.80
2015,07,08,10,00,21.80
2015,07,08,10,01,21.90
2015,07,08,10,02,21.90
2015,07,08,10,03,21.90
2015,07,08,10,04,21.90
2015,07,08,10,05,21.90
2015,07,08,10,06,22.00
2015,07,08,10,07,22.00
2015,07,08,10,08,22.00
2015,07,08,10,09,22.10
2015,07,08,10,10,22.10
2015,07,08,10,11,22.10
2015,07,08,10,12,22.10
2015,07,08,10,13,22.10
2015,07,08,10,14,22.10
2015,07,08,10,15,22.20
2015,07,08,10,16,22.20
2015,07,08,10,17,22.20
2015,07,08,10,18,22.20
2015,07,08,10,19,22.20
2015,07,08,10,20,22.20
2015,07,08,10,21,22.20
2015,07,08,10,22,22.30
2015,07,08,10,23,22.30
2015,07,08,10,24,22.30
2015,07,08,10,25,22.40
2015,07,08,10,26,22.40
2015,07,08,10,27,22.40
2015,07,08,10,28,22.40
2015,07,08,10,29,22.50
2015,07,08,10,30,22.50
2015,07,08,10,31,22.50
2015,07,08,10,32,22.50
2015,07,08,10,33,22.60
2015,07,08,10,34,22.60
2015,07,08,10,35,22.60
2015,07,08,10,36,22.60
2015,07,08,10,37,22.60
2015,07,08,10,38,22.70
2015,07,08,10,39,22.70
2015,07,08,10,40,22.70
2015,07,08,10,41,22.70
2015,07,08,10,42,22.70
2015,07,08,10,43,22.70
2015,07,08,10,44,22.70
2015,07,08,10,45,22.80
2015,07,08,10,46,22.80
2015,07,08,10,47,22.80
2015,07,08,10,48,22.80
2015,07,08,10,49,22.80
2015,07,08,10,50,22.80
2015,07,08,10,51,22.90
2015,07,08,10,52,22.90
2015,07,08,10,53,22.90
2015,07,08,10,54,22.90
2015,07,08,10,55,23.00
2015,07,08,10,56,23.00
2015,07,08,10,57,23.10
2015,07,08,10,58,23.10
2015,07,08,10,59,23.10
2015,07,08,11,00,23.20
2015,07,08,11,01,23.20
2015,07,08,11,02,23.20
2015,07,08,11,03,23.30
2015,07,08,11,04,23.30
2015,07,08,11,05,23.30
2015,07,08,11,06,23.30
2015,07,08,11,07,23.30
2015,07,08,11,08,23.40
2015,07,08,11,09,23.40
2015,07,08,11,10,23.40
2015,07,08,11,11,23.40
2015,07,08,11,12,23.40
2015,07,08,11,13,23.50
2015,07,08,11,14,23.50
2015,07,08,11,15,23.50
2015,07,08,11,16,23.50
2015,07,08,11,17,23.60
2015,07,08,11,18,23.60
2015,07,08,11,19,23.60
2015,07,08,11,20,23.70
2015,07,08,11,21,23.70
2015,07,08,11,22,23.80
2015,07,08,11,23,23.80
2015,07,08,11,24,23.90
2015,07,08,11,25,23.90
2015,07,08,11,26,23.90
2015,07,08,11,27,23.90
2015,07,08,11,28,23.90
2015,07,08,11,29,23.90
2015,07,08,11,30,23.90
2015,07,08,11,31,23.90
2015,07,08,11,32,24.00
2015,07,08,11,33,24.00
2015,07,08,11,34,24.00
2015,07,08,11,35,24.10
2015,07,08,11,36,24.10
2015,07,08,11,37,24.10
2015,07,08,11,38,24.10
2015,07,08,11,39,24.20
2015,07,08,11,40,24.20
2015,07,08,11,41,24.10
2015,07,08,11,42,24.10
2015,07,08,11,43,24.10
2015,07,08,11,44,24.10
2015,07,08,11,45,24.10
2015,07,08,11,46,24.20
2015,07,08,11,47,24.20
2015,07,08,11,48,24.20
2015,07,08,11,49,24.20
2015,07,08,11,50,24.30
2015,07,08,11,51,24.30
2015,07,08,11,52,24.30
2015,07,08,11,53,24.30
2015,07,08,11,54,24.30
2015,07,08,11,55,24.20
2015,07,08,11,56,24.20
2015,07,08,11,57,24.20
2015,07,08,11,58,24.20
2015,07,08,11,59,24.30
2015,07,08,12,00,24.30
2015,07,08,12,01,24.40
2015,07,08,12,02,24.40
2015,07,08,12,03,24.40
2015,07,08,12,04,24.40
2015,07,08,12,05,24.40
2015,07,08,12,06,24.40
2015,07,08,12,07,24.40
2015,07,08,12,08,24.40
2015,07,08,12,09,24.40
2015,07,08,12,10,24.40
2015,07,08,12,11,24.40
2015,07,08,12,12,24.40
2015,07,08,12,13,24.40
2015,07,08,12,14,24.40
2015,07,08,12,15,24.40
2015,07,08,12,16,24.40
2015,07,08,12,17,24.40
2015,07,08,12,18,24.40
2015,07,08,12,19,24.40
2015,07,08,12,20,24.50
2015,07,08,12,21,24.50
2015,07,08,12,22,24.50
2015,07,08,12,23,24.60
2015,07,08,12,24,24.60
2015,07,08,12,25,24.70
2015,07,08,12,26,24.70
2015,07,08,12,27,24.80
2015,07,08,12,28,24.80
2015,07,08,12,29,24.90
2015,07,08,12,30,24.90
2015,07,08,12,31,25.00
2015,07,08,12,32,25.00
2015,07,08,12,33,25.10
2015,07,08,12,34,25.10
2015,07,08,12,35,25.10
2015,07,08,12,36,25.20
2015,07,08,12,37,25.20
2015,07,08,12,38,25.20
2015,07,08,12,39,25.20
2015,07,08,12,40,25.30
2015,07,08,12,41,25.30
2015,07,08,12,42,25.30
2015,07,08,12,43,25.30
2015,07,08,12,44,25.30
2015,07,08,12,45,25.30
2015,07,08,12,46,25.30
2015,07,08,12,47,25.30
2015,07,08,12,48,25.40
2015,07,08,12,49,25.40
2015,07,08,12,50,25.40
2015,07,08,12,51,25.40
2015,07,08,12,52,25.50
2015,07,08,12,53,25.60
2015,07,08,12,54,25.60
2015,07,08,12,55,25.60
2015,07,08,12,56,25.60
2015,07,08,12,57,25.60
2015,07,08,12,58,25.60
2015,07,08,12,59,25.60
2015,07,08,13,00,25.60
2015,07,08,13,01,25.60
2015,07,08,13,02,25.60
2015,07,08,13,03,25.60
2015,07,08,13,04,25.60
2015,07,08,13,05,25.70
2015,07,08,13,06,25.70
2015,07,08,13,07,25.70
2015,07,08,13,08,25.80
2015,07,08,13,09,25.80
2015,07,08,13,10,25.90
2015,07,08,13,11,25.90
2015,07,08,13,12,25.90
2015,07,08,13,13,25.90
2015,07,08,13,14,25.90
2015,07,08,13,15,25.90
2015,07,08,13,16,26.00
2015,07,08,13,17,26.00
2015,07,08,13,18,26.10
2015,07,08,13,19,26.10
2015,07,08,13,20,26.20
2015,07,08,13,21,26.20
2015,07,08,13,22,26.30
2015,07,08,13,23,26.30
2015,07,08,13,24,26.40
2015,07,08,13,25,26.50
2015,07,08,13,26,26.50
2015,07,08,13,27,26.50
2015,07,08,13,28,26.60
2015,07,08,13,29,26.60
2015,07,08,13,30,26.60
2015,07,08,13,31,26.60
2015,07,08,13,32,26.50
2015,07,08,13,33,26.60
2015,07,08,13,34,26.60
2015,07,08,13,35,26.60
2015,07,08,13,36,26.70
2015,07,08,13,37,26.70
2015,07,08,13,38,26.80
2015,07,08,13,39,26.80
2015,07,08,13,40,26.80
2015,07,08,13,41,26.90
2015,07,08,13,42,26.90
2015,07,08,13,43,26.90
2015,07,08,13,44,27.00
2015,07,08,13,45,27.10
2015,07,08,13,46,27.10
2015,07,08,13,47,27.10
2015,07,08,13,48,27.10
2015,07,08,13,49,27.10
2015,07,08,13,50,27.20
2015,07,08,13,51,27.20
2015,07,08,13,52,27.20
2015,07,08,13,53,27.20
2015,07,08,13,54,27.20
2015,07,08,13,55,27.20
2015,07,08,13,56,27.20
2015,07,08,13,57,27.30
2015,07,08,13,58,27.30
2015,07,08,13,59,27.40
2015,07,08,14,00,27.50
2015,07,08,14,01,27.50
2015,07,08,14,02,27.60
2015,07,08,14,03,27.60
2015,07,08,14,04,27.60
2015,07,08,14,05,27.60
2015,07,08,14,06,27.60
2015,07,08,14,07,27.60
2015,07,08,14,08,27.60
2015,07,08,14,09,27.60
2015,07,08,14,10,27.70
2015,07,08,14,11,27.70
2015,07,08,14,12,27.70
2015,07,08,14,13,27.70
2015,07,08,14,14,27.70
2015,07,08,14,15,27.70
2015,07,08,14,16,27.70
2015,07,08,14,17,27.80
2015,07,08,14,18,27.80
2015,07,08,14,19,27.90
2015,07,08,14,20,28.00
2015,07,08,14,21,28.10
2015,07,08,14,22,28.10
2015,07,08,14,23,28.20
2015,07,08,14,24,28.20
2015,07,08,14,25,28.20
2015,07,08,14,26,28.20
2015,07,08,14,27,28.10
2015,07,08,14,28,28.10
2015,07,08,14,29,28.10
2015,07,08,14,30,28.20
2015,07,08,14,31,28.20
2015,07,08,14,32,28.30
2015,07,08,14,33,28.30
2015,07,08,14,34,28.40
2015,07,08,14,35,28.40
2015,07,08,14,36,28.40
2015,07,08,14,37,28.40
2015,07,08,14,38,28.50
2015,07,08,14,39,28.50
2015,07,08,14,40,28.60
2015,07,08,14,41,28.60
2015,07,08,14,42,28.60
2015,07,08,14,43,28.70
2015,07,08,14,44,28.70
2015,07,08,14,45,28.70
2015,07,08,14,46,28.60
2015,07,08,14,47,28.60
2015,07,08,14,48,28.60
2015,07,08,14,49,28.60
2015,07,08,14,50,28.60
2015,07,08,14,51,28.60
2015,07,08,14,52,28.60
2015,07,08,14,53,28.70
2015,07,08,14,54,28.70
2015,07,08,14,55,28.60
2015,07,08,14,56,28.60
2015,07,08,14,57,28.60
2015,07,08,14,58,28.60
2015,07,08,14,59,28.60
2015,07,08,15,00,28.60
2015,07,08,15,01,28.60
2015,07,08,15,02,28.60
2015,07,08,15,03,28.70
2015,07,08,15,04,28.70
2015,07,08,15,05,28.70
2015,07,08,15,06,28.70
2015,07,08,15,07,28.70
2015,07,08,15,08,28.70
2015,07,08,15,09,28.70
2015,07,08,15,10,28.70
2015,07,08,15,11,28.70
2015,07,08,15,12,28.70
2015,07,08,15,13,28.60
2015,07,08,15,14,28.60
2015,07,08,15,15,28.70
2015,07,08,15,16,28.70
2015,07,08,15,17,28.70
2015,07,08,15,18,28.80
2015,07,08,15,19,28.80
2015,07,08,15,20,28.80
2015,07,08,15,21,28.90
2015,07,08,15,22,28.90
2015,07,08,15,23,28.90
2015,07,08,15,24,28.90
2015,07,08,15,25,28.90
2015,07,08,15,26,28.80
2015,07,08,15,27,28.80
2015,07,08,15,28,28.70
2015,07,08,15,29,28.70
2015,07,08,15,30,28.70
2015,07,08,15,31,28.70
2015,07,08,15,32,28.70
2015,07,08,15,33,28.70
2015,07,08,15,34,28.70
2015,07,08,15,35,28.60
2015,07,08,15,36,28.60
2015,07,08,15,37,28.70
2015,07,08,15,38,28.70
2015,07,08,15,39,28.70
2015,07,08,15,40,28.70
2015,07,08,15,41,28.80
2015,07,08,15,42,28.80
2015,07,08,15,43,28.90
2015,07,08,15,44,28.90
2015,07,08,15,45,29.00
2015,07,08,15,46,29.00
2015,07,08,15,47,29.00
2015,07,08,15,48,29.00
2015,07,08,15,49,29.00
2015,07,08,15,50,29.00
2015,07,08,15,51,29.10
2015,07,08,15,52,29.10
2015,07,08,15,53,29.20
2015,07,08,15,54,29.20
2015,07,08,15,55,29.20
2015,07,08,15,56,29.20
2015,07,08,15,57,29.20
2015,07,08,15,58,29.20
2015,07,08,15,59,29.10
2015,07,08,16,00,29.10
2015,07,08,16,01,29.10
2015,07,08,16,02,29.00
2015,07,08,16,03,29.00
2015,07,08,16,04,28.90
2015,07,08,16,05,28.90
2015,07,08,16,06,28.90
2015,07,08,16,07,28.90
2015,07,08,16,08,28.90
2015,07,08,16,09,28.90
2015,07,08,16,10,29.00
2015,07,08,16,11,29.00
2015,07,08,16,12,29.10
2015,07,08,16,13,29.20
2015,07,08,16,14,29.20
2015,07,08,16,15,29.30
2015,07,08,16,16,29.30
2015,07,08,16,17,29.30
2015,07,08,16,18,29.30
2015,07,08,16,19,29.40
2015,07,08,16,20,29.40
2015,07,08,16,21,29.30
2015,07,08,16,22,29.30
2015,07,08,16,23,29.30
2015,07,08,16,24,29.30
2015,07,08,16,25,29.30
2015,07,08,16,26,29.30
2015,07,08,16,27,29.30
2015,07,08,16,28,29.30
2015,07,08,16,29,29.30
2015,07,08,16,30,29.30
2015,07,08,16,31,29.40
2015,07,08,16,32,29.40
2015,07,08,16,33,29.40
2015,07,08,16,34,29.30
2015,07,08,16,35,29.30
2015,07,08,16,36,29.30
2015,07,08,16,37,29.30
2015,07,08,16,38,29.20
2015,07,08,16,39,29.20
2015,07,08,16,40,29.10
2015,07,08,16,41,29.10
2015,07,08,16,42,29.00
2015,07,08,16,43,28.90
2015,07,08,16,44,28.90
2015,07,08,16,45,28.80
2015,07,08,16,46,28.80
2015,07,08,16,47,28.80
2015,07,08,16,48,28.80
2015,07,08,16,49,28.80
2015,07,08,16,50,28.80
2015,07,08,16,51,28.70
2015,07,08,16,52,28.70
2015,07,08,16,53,28.70
2015,07,08,16,54,28.60
2015,07,08,16,55,28.60
2015,07,08,16,56,28.60
2015,07,08,16,57,28.50
2015,07,08,16,58,28.60
2015,07,08,16,59,28.60
2015,07,08,17,00,28.60
2015,07,08,17,01,28.60
2015,07,08,17,02,28.60
2015,07,08,17,03,28.60
2015,07,08,17,04,28.60
2015,07,08,17,05,28.70
2015,07,08,17,06,28.70
2015,07,08,17,07,28.70
2015,07,08,17,08,28.70
2015,07,08,17,09,28.70
2015,07,08,17,10,28.80
2015,07,08,17,11,28.70
2015,07,08,17,12,28.80
2015,07,08,17,13,28.80
2015,07,08,17,14,28.80
2015,07,08,17,15,28.70
2015,07,08,17,16,28.70
2015,07,08,17,17,28.60
2015,07,08,17,18,28.60
2015,07,08,17,19,28.50